TimeMST,TemperatureF,Dew PointF,Humidity,Sea Level PressureIn,VisibilityMPH,Wind Direction,Wind SpeedMPH,Gust SpeedMPH,PrecipitationIn,Events,Conditions,WindDirDegrees,DateUTC
12:53 AM,12.0,10.9,95,29.62,0.2,Calm,Calm,-,N/A,Fog,Light Freezing Fog,0,2012-12-27 07:53:00
1:53 AM,12.0,10.0,92,29.62,0.2,SE,3.5,-,N/A,Fog,Light Freezing Fog,140,2012-12-27 08:53:00
2:53 AM,7.0,5.0,92,29.69,0.5,SSE,4.6,-,N/A,Fog,Light Freezing Fog,150,2012-12-27 09:53:00
3:05 AM,6.8,5.0,92,29.54,1.0,Calm,Calm,-,N/A,,Overcast,0,2012-12-27 10:05:00
3:17 AM,6.8,3.2,85,29.54,3.0,Calm,Calm,-,N/A,,Overcast,0,2012-12-27 10:17:00
3:42 AM,8.6,5.0,85,29.54,1.8,East,4.6,-,N/A,,Overcast,80,2012-12-27 10:42:00
3:50 AM,8.6,6.8,92,29.54,3.0,East,4.6,-,N/A,,Overcast,90,2012-12-27 10:50:00
3:53 AM,8.1,6.1,92,29.70,6.0,East,5.8,-,N/A,,Overcast,80,2012-12-27 10:53:00
4:53 AM,8.1,6.1,92,29.71,9.0,ENE,6.9,-,N/A,,Overcast,60,2012-12-27 11:53:00
5:53 AM,12.0,9.0,88,29.70,10.0,NE,4.6,-,N/A,,Overcast,40,2012-12-27 12:53:00
6:53 AM,10.0,8.1,92,29.72,10.0,North,6.9,-,N/A,,Overcast,360,2012-12-27 13:53:00
7:53 AM,9.0,6.1,88,29.75,10.0,North,5.8,-,N/A,,Mostly Cloudy,360,2012-12-27 14:53:00
8:53 AM,9.0,6.1,88,29.80,10.0,West,5.8,-,N/A,,Mostly Cloudy,270,2012-12-27 15:53:00
9:53 AM,12.9,9.0,84,29.82,10.0,NNW,4.6,-,N/A,,Overcast,330,2012-12-27 16:53:00
10:53 AM,12.9,10.0,88,29.80,10.0,NNW,10.4,-,N/A,,Overcast,330,2012-12-27 17:53:00
11:53 AM,14.0,10.0,84,29.79,10.0,North,11.5,-,N/A,,Overcast,350,2012-12-27 18:53:00
12:53 PM,12.9,9.0,84,29.78,10.0,NNW,20.7,25.3,N/A,,Partly Cloudy,340,2012-12-27 19:53:00
1:53 PM,12.9,8.1,81,29.80,10.0,North,15.0,-,N/A,,Overcast,350,2012-12-27 20:53:00
2:53 PM,12.9,8.1,81,29.85,10.0,NNW,17.3,24.2,N/A,,Scattered Clouds,340,2012-12-27 21:53:00
3:53 PM,10.9,6.1,81,29.89,10.0,NNW,18.4,-,N/A,,Overcast,330,2012-12-27 22:53:00
4:53 PM,8.1,3.0,80,29.93,10.0,NW,10.4,-,N/A,,Overcast,320,2012-12-27 23:53:00
5:53 PM,3.0,-0.0,87,29.96,10.0,WNW,6.9,-,N/A,,Mostly Cloudy,300,2012-12-28 00:53:00
6:53 PM,6.1,1.9,83,29.98,10.0,NNW,9.2,-,N/A,,Overcast,330,2012-12-28 01:53:00
7:53 PM,7.0,1.9,80,29.98,10.0,North,4.6,-,N/A,,Overcast,360,2012-12-28 02:53:00
8:26 PM,8.6,3.2,79,29.75,10.0,West,8.1,-,N/A,,Overcast,260,2012-12-28 03:26:00
8:53 PM,3.9,1.0,88,30.00,10.0,Calm,Calm,-,N/A,,Partly Cloudy,0,2012-12-28 03:53:00
9:22 PM,3.2,1.4,92,29.76,9.0,NE,3.5,-,N/A,,Mostly Cloudy,50,2012-12-28 04:22:00
9:31 PM,3.2,1.4,92,29.76,10.0,NE,4.6,-,N/A,,Scattered Clouds,50,2012-12-28 04:31:00
9:53 PM,1.9,-0.9,88,30.01,10.0,ESE,3.5,-,N/A,,Partly Cloudy,110,2012-12-28 04:53:00
10:53 PM,3.9,1.0,88,30.01,10.0,ENE,4.6,-,N/A,,Overcast,60,2012-12-28 05:53:00
11:53 PM,-0.0,-2.0,91,30.04,5.0,Calm,Calm,-,0.00,Snow,Light Snow,0,2012-12-28 06:53:00